COSMOS 2218

导读 | 豆包AI

COSMOS 2218是独联体(CIS)于1992年10月29日发射的一颗“宇宙”系列卫星,该系列是世界上规模最大的卫星家族,多数为军用卫星,涵盖侦察、通信、导航等多种用途。作为苏联解体后独联体继承航天计划的产物,该卫星具体任务细节未完全公开,延续了“宇宙”系列服务军事与空间科研的传统,目前仍在轨运行,是冷战后俄罗斯航天发展初期的典型在轨航天器。

基本信息
目录编号:
22207
目录名称:
COSMOS 2218
国际标识:
1992-073A
轨道中心:
EARTH
卫星名称:
COSMOS 2218
卫星全名:
--
卫星状态:
在轨 (已飞行12189 天)
发射日期:
1992-10-29 UTC
国别 :
俄罗斯(独联体) (CIS)
星等 :
--
轨道信息
数据来源 国际轨道数据
星历时间: 2026-03-13T17:19:32+0800
16小时前
查看轨道信息
半长轴: 7366.656km
偏心率: 0.0031283
轨道倾角: 82.923°
近地点辐角 266.873°
升交点赤经 206.477°
平近点角 116.419°
近地点: 965.473km
远地点: 1011.565km
周期: 104.873分钟
每日圈数: 13.730843
详细信息
使用方式:
暂无
2D轨道图
3D轨道图
轨道高度分析图
轨道倾角分析图
轨道综合分析图
查看轨道综合分析图